Retour au catalogue

STARLINK-2726

ActifCommunicationsVLEO
NORAD 48662·PAYLOAD·🇺🇸 United States

Lancé May 26, 2021 depuis Cape Canaveral Space Force Station

Loading…

Prochains Passages (prochaines 24 heures)

TLE

FraisSource: CelesTrak SupGP

Époque: Sep 14, 2026, 20:45 UTC

1 48662C 21044AA  26257.86506944 -.00026633  00000+0 -85638-3 0  2572
2 48662  53.1592 315.0376 0001276  81.5428 153.0468 15.31717293    19

Suivez STARLINK-2726 en temps réel avec AllMySat

Download on the App Store